Wetbulb
59.78 60.00 60.15 60.15 60.18 60.35 60.22 60.23 60.04 60.13 60.23 60.36 60.44 60.42 60.44 60.33 59.47 58.76 55.14 61.12 62.36 68.10 67.42 60.03 57.54 58.88 59.68 60.10 60.77 61.01 52.50 49.70 50.56 51.85 56.60 61.21 58.92 61.23 62.00 59.95 61.04 62.13 62.08 63.57 65.49
59.36 59.38 59.82 60.12 60.09 60.03 60.03 59.96 59.93 60.00 60.08 60.33 60.29 60.20 60.09 60.00 57.38 56.91 65.42 67.30 67.78 69.51 56.09 56.35 57.28 57.96 56.63 58.86 59.91 58.10 51.29 52.96 57.04 56.08 58.59 60.30 59.57 59.89 58.25 58.03 58.46 60.14 62.30 63.87 64.96
58.89 59.11 59.46 59.85 60.04 59.84 59.92 59.95 59.99 59.97 60.19 60.24 59.89 59.81 59.87 59.06 57.53 56.70 68.26 69.32 68.99 66.51 58.30 58.54 58.37 55.23 51.67 60.03 59.19 56.36 52.48 56.26 58.15 60.99 62.67 60.57 59.87 61.31 57.51 55.88 57.45 56.69 56.93 57.57 57.80
58.57 58.75 58.94 59.51 59.68 59.54 59.63 59.77 59.86 60.00 59.96 59.56 59.50 59.65 60.07 58.00 49.92 57.64 69.61 70.59 69.65 61.98 58.99 57.34 55.87 54.77 56.87 57.10 59.55 55.50 57.63 59.74 61.17 62.54 62.09 59.81 60.08 56.98 57.97 57.32 60.05 59.17 58.53 56.52 55.64
58.44 58.60 58.62 59.07 59.09 59.09 59.19 59.34 59.39 59.38 59.20 59.10 59.42 59.99 56.59 56.67 56.41 65.86 70.58 69.13 62.20 58.45 55.99 55.23 53.74 55.65 55.39 58.07 58.51 56.80 57.58 59.23 62.07 61.48 60.15 59.52 57.13 56.71 56.99 59.21 59.80 58.85 57.25 54.58 55.37
58.33 58.37 58.55 58.60 58.74 58.72 58.76 58.30 58.22 58.50 58.79 59.27 59.84 59.94 58.55 52.72 59.69 64.95 61.07 60.81 59.93 57.74 56.52 56.54 56.18 60.58 58.62 58.18 56.51 56.49 56.65 58.74 61.19 59.65 59.39 56.47 56.37 57.90 57.83 60.13 58.76 57.43 54.76 54.23 55.09
58.20 57.91 57.85 58.27 58.46 58.56 58.54 57.94 57.61 58.05 58.89 59.81 60.32 60.00 58.06 56.79 60.50 61.77 59.95 58.66 59.77 60.13 58.90 62.17 62.43 60.72 59.41 58.05 60.88 59.74 54.02 57.11 54.91 57.43 58.25 59.66 55.58 54.80 58.36 59.11 57.32 56.39 54.28 54.26 55.52
58.02 57.72 57.54 57.99 58.27 58.36 58.46 58.10 57.86 58.44 59.41 59.91 60.44 57.23 55.60 60.86 59.40 60.15 60.28 59.58 60.72 60.56 63.04 64.85 64.70 61.46 60.19 59.34 57.76 55.11 55.45 49.11 50.66 55.58 58.57 58.82 52.62 56.61 59.07 58.48 56.82 56.88 56.57 55.40 57.68
57.68 57.18 57.28 57.68 57.87 58.04 57.78 57.21 57.87 59.31 60.17 60.65 57.41 55.82 55.34 62.23 58.83 59.34 59.67 58.50 59.12 60.35 62.03 63.47 61.01 59.97 56.72 52.67 51.25 52.38 45.32 49.15 51.80 54.09 54.55 55.05 53.09 57.62 59.63 58.61 56.84 56.91 56.89 56.82 57.87
57.28 57.03 56.83 57.06 57.59 57.41 56.59 56.75 58.00 57.25 60.18 61.06 62.16 55.74 58.48 54.90 57.94 60.56 59.71 60.00 57.28 56.36 55.63 56.05 53.58 51.00 54.04 50.66 44.27 47.72 47.63 48.71 47.69 52.81 53.68 51.50 50.94 55.68 56.59 58.40 56.79 56.38 56.26 56.78 57.56
57.02 56.77 56.61 56.84 57.26 56.58 55.85 56.78 57.15 57.48 57.21 56.07 54.64 55.22 57.63 58.77 58.49 57.25 59.11 57.79 56.49 54.10 49.16 52.07 46.94 45.40 49.15 55.04 55.02 54.16 51.17 48.54 51.12 53.12 49.21 49.32 49.33 53.99 57.99 58.07 55.44 55.63 55.36 55.98 56.90
56.33 56.39 56.69 56.57 56.76 56.67 54.08 55.30 60.04 56.84 52.98 60.26 60.02 59.49 59.63 56.08 53.72 56.93 58.22 52.95 51.94 48.82 50.61 50.56 47.79 55.35 56.21 55.92 53.60 52.16 50.11 49.39 52.88 53.46 48.99 53.56 52.27 54.00 56.49 56.86 55.85 55.10 55.11 55.33 56.08
55.91 55.99 56.19 56.53 56.63 53.24 55.26 59.94 64.06 57.72 52.07 56.59 58.91 57.02 56.62 55.96 54.05 53.65 55.25 53.29 50.84 48.51 51.07 49.65 52.90 57.31 56.66 53.93 52.34 50.91 48.46 49.97 49.55 52.64 50.99 51.77 45.43 52.30 55.00 55.25 55.65 54.05 53.74 56.29 56.31
55.60 55.70 55.89 55.91 55.24 58.03 58.05 62.45 61.28 59.93 47.29 53.19 54.02 55.72 56.63 55.94 53.26 56.87 56.68 53.40 50.48 52.46 53.43 52.49 57.00 55.46 54.44 53.29 54.46 49.25 54.58 53.85 51.55 47.91 43.70 50.09 40.02 46.30 51.69 52.11 53.16 52.40 52.96 54.14 56.58
55.30 55.70 55.76 55.77 53.41 53.82 59.51 58.43 63.22 59.55 40.17 53.22 53.85 58.50 56.81 54.09 54.85 55.54 57.86 54.11 51.16 54.23 54.33 51.31 52.43 52.73 52.10 53.53 54.37 52.22 55.04 52.46 51.62 47.63 47.59 47.49 40.94 44.21 48.21 49.44 50.80 52.41 52.97 54.64 55.81
55.10 55.48 55.16 55.03 54.25 56.01 59.40 59.37 58.63 48.20 43.21 51.04 54.54 53.35 52.65 54.68 55.33 56.30 56.76 57.28 58.82 55.39 55.39 52.83 56.80 55.30 54.75 55.34 55.23 55.17 53.01 50.27 46.81 46.11 39.96 43.89 43.60 42.57 46.45 46.97 51.02 52.97 53.43 54.72 55.01
54.72 54.68 52.84 57.41 56.78 57.99 58.55 57.40 47.52 43.46 56.46 51.16 50.74 52.56 51.45 53.25 54.87 55.58 54.93 54.86 51.96 48.82 47.84 53.74 54.14 56.24 56.27 51.56 54.25 51.65 43.50 37.13 35.66 37.07 37.88 45.96 41.39 43.01 50.09 52.21 53.15 52.27 53.61 54.02 54.51
53.69 52.64 54.24 56.84 55.41 55.46 55.53 52.91 46.28 53.15 53.97 58.67 53.99 52.03 51.39 54.98 54.97 55.79 55.04 52.20 55.73 53.40 48.59 46.04 45.25 54.09 55.30 52.53 50.29 46.79 44.35 37.71 31.42 33.69 37.18 44.06 39.68 43.35 50.73 53.48 53.84 53.76 53.47 53.62 54.20
51.69 55.16 55.35 59.62 59.59 58.14 54.75 49.37 50.30 53.91 57.15 55.54 52.66 50.94 52.69 54.82 54.25 55.58 54.61 53.88 54.88 53.64 47.85 46.43 48.10 55.87 55.92 56.42 52.44 46.92 44.41 46.07 41.03 41.60 37.04 40.44 45.26 48.04 51.69 52.09 53.47 52.35 52.64 53.32 51.91
56.57 60.92 57.53 58.77 59.60 59.42 53.32 49.58 54.78 59.41 59.33 58.06 51.85 54.32 50.68 52.06 52.22 54.08 53.47 55.49 55.02 56.07 54.61 51.40 45.45 52.64 54.22 55.30 54.04 50.42 52.29 41.80 41.51 32.51 32.91 39.33 39.82 41.01 46.96 49.19 51.52 52.23 52.60 52.85 53.36
58.25 58.05 59.23 60.45 61.46 56.47 50.39 53.20 57.12 60.23 59.91 56.41 54.33 53.11 54.21 52.61 52.42 53.72 52.94 53.74 55.13 53.93 54.58 50.91 45.97 48.65 51.99 48.75 47.17 47.28 45.66 45.76 43.25 41.08 35.81 34.63 37.35 47.73 46.40 46.54 46.60 50.78 52.80 52.75 51.86
58.31 54.81 62.15 61.71 53.20 54.64 53.67 57.36 55.24 57.61 58.76 57.95 56.59 54.93 53.25 53.05 51.31 52.81 51.54 53.08 55.88 53.64 49.30 50.77 46.72 44.22 47.26 52.73 53.43 49.52 45.50 45.62 39.65 37.66 39.41 38.53 37.98 49.77 45.95 47.46 46.54 46.83 49.02 48.61 49.09
59.69 59.31 61.48 60.86 50.89 52.75 56.12 57.05 58.54 57.08 56.77 56.46 55.18 55.75 55.06 51.89 48.62 54.00 53.77 55.37 55.33 54.01 50.35 50.66 45.73 41.24 43.38 47.47 50.82 46.74 47.69 46.11 45.80 42.18 37.74 35.54 36.51 48.13 47.68 46.65 47.02 45.94 46.46 49.75 50.83
59.32 55.97 56.31 57.42 57.60 54.65 53.95 55.17 55.77 58.36 57.11 56.78 55.17 55.26 53.16 51.61 52.19 52.56 53.30 56.35 57.06 56.83 59.54 57.02 47.64 44.15 39.60 42.83 46.04 43.87 46.37 46.29 43.68 37.98 39.22 39.90 40.21 42.58 44.29 44.89 46.31 46.99 47.87 48.24 51.20
60.78 57.78 55.88 49.97 54.58 55.75 55.55 55.47 54.32 55.04 57.28 57.38 53.78 53.42 53.21 49.73 52.68 51.65 54.10 54.53 56.61 57.99 56.55 52.63 44.24 46.38 46.29 47.65 47.25 45.81 45.33 44.22 40.85 41.08 37.76 39.97 39.58 41.51 43.09 43.71 45.33 46.49 48.26 48.95 49.78
58.83 57.60 59.64 56.84 57.61 57.19 53.25 54.95 55.79 54.93 55.54 53.75 52.79 54.45 53.74 49.64 50.91 50.66 53.74 53.37 52.57 56.39 52.48 53.24 45.80 46.88 44.55 48.26 47.20 44.75 46.42 44.79 44.34 43.92 42.91 42.66 41.09 46.64 48.59 48.89 49.79 48.64 48.89 47.94 48.69
66.59 65.69 59.64 57.09 55.96 54.50 54.55 55.67 56.16 56.62 56.42 56.34 56.18 54.13 52.13 53.47 55.62 55.13 55.67 55.06 54.21 52.81 52.37 50.00 49.50 45.02 40.65 47.65 47.83 39.27 44.17 45.86 45.60 46.52 45.02 39.72 42.70 47.27 46.90 48.96 47.74 47.87 49.68 48.65 48.76
MSLP
1016.72 1016.40 1016.17 1016.02 1015.80 1015.56 1015.26 1014.96 1014.66 1014.24 1013.94 1013.64 1013.38 1013.24 1012.92 1012.57 1011.53 1011.41 1010.44 1008.47 1008.10 1008.22 1008.74 1008.26 1008.58 1008.03 1008.25 1008.83 1009.18 1010.49 1013.59 1015.77 1015.46 1014.75 1014.01 1013.48 1014.36 1016.14 1017.39 1017.50 1018.10 1018.72 1019.28 1020.04 1020.07
1016.54 1016.24 1016.13 1015.90 1015.67 1015.49 1015.11 1014.76 1014.38 1013.96 1013.74 1013.58 1013.37 1013.08 1012.91 1012.58 1011.85 1010.22 1008.12 1007.99 1007.92 1008.31 1008.50 1008.36 1008.32 1007.90 1008.50 1008.99 1010.46 1011.23 1013.34 1014.21 1013.20 1013.05 1012.52 1013.58 1014.39 1015.99 1017.80 1018.73 1019.34 1019.73 1020.20 1020.33 1020.25
1016.48 1016.19 1016.10 1015.76 1015.48 1015.27 1014.95 1014.58 1014.18 1013.83 1013.63 1013.47 1013.20 1013.01 1012.82 1012.57 1011.64 1008.54 1007.50 1007.84 1007.98 1008.19 1008.17 1007.88 1007.58 1007.63 1008.45 1010.25 1012.50 1012.91 1013.00 1012.39 1012.23 1012.42 1012.45 1013.80 1015.19 1016.50 1018.19 1019.72 1020.39 1020.75 1021.13 1021.20 1020.86
1016.39 1016.24 1015.90 1015.65 1015.35 1015.12 1014.71 1014.32 1013.90 1013.63 1013.47 1013.32 1013.11 1012.95 1012.62 1012.33 1010.31 1007.69 1007.48 1007.78 1007.90 1008.05 1008.08 1007.63 1007.89 1008.94 1010.84 1013.32 1014.59 1014.20 1013.01 1011.88 1011.42 1011.82 1012.90 1014.49 1016.21 1018.01 1018.64 1019.99 1021.03 1021.44 1021.58 1021.67 1021.67
1016.40 1016.04 1015.65 1015.44 1015.14 1014.86 1014.40 1014.04 1013.73 1013.46 1013.34 1013.25 1013.06 1012.87 1012.19 1011.40 1008.66 1007.37 1007.65 1007.70 1007.81 1007.98 1007.85 1007.78 1008.13 1009.60 1011.69 1014.13 1015.18 1015.22 1013.75 1013.12 1012.53 1013.08 1014.18 1015.51 1017.46 1018.83 1019.86 1020.46 1020.99 1021.52 1022.07 1022.65 1022.55
1016.19 1015.87 1015.64 1015.28 1014.94 1014.60 1014.25 1013.84 1013.48 1013.23 1013.18 1013.12 1012.93 1012.99 1012.28 1009.74 1006.45 1006.79 1007.07 1007.56 1007.42 1007.71 1007.26 1007.27 1008.16 1009.95 1011.94 1013.26 1014.93 1014.82 1014.11 1013.93 1014.74 1015.54 1016.28 1017.38 1018.52 1018.94 1020.39 1020.51 1021.12 1021.51 1021.94 1022.41 1023.11
1016.16 1015.80 1015.53 1015.14 1014.78 1014.39 1014.04 1013.56 1013.20 1013.03 1013.05 1012.98 1012.87 1012.68 1011.04 1007.80 1005.97 1006.44 1006.54 1006.72 1006.57 1006.70 1006.70 1006.53 1006.92 1009.02 1012.84 1012.90 1013.16 1014.39 1014.34 1014.43 1015.18 1016.32 1016.90 1017.67 1018.76 1019.92 1020.65 1020.42 1020.53 1021.00 1021.64 1022.30 1022.35
1016.04 1015.71 1015.41 1015.02 1014.52 1014.28 1013.81 1013.35 1013.02 1012.68 1012.72 1012.75 1012.83 1012.27 1009.38 1005.54 1005.56 1006.07 1006.07 1006.04 1005.90 1005.61 1005.88 1006.14 1007.84 1009.96 1011.43 1013.20 1014.29 1014.93 1015.06 1015.46 1015.80 1015.18 1016.17 1015.88 1017.68 1018.79 1019.95 1020.81 1020.73 1020.59 1021.13 1021.39 1021.55
1015.85 1015.54 1015.17 1014.75 1014.32 1013.91 1013.46 1013.10 1012.63 1012.20 1012.33 1012.64 1012.66 1011.48 1008.13 1005.44 1005.53 1005.49 1005.50 1005.68 1005.43 1005.37 1005.50 1005.74 1006.98 1009.05 1011.85 1013.15 1014.57 1015.04 1015.20 1015.85 1016.24 1016.10 1015.60 1015.52 1016.28 1017.81 1019.69 1020.95 1020.52 1020.59 1020.56 1021.17 1021.37
1015.63 1015.21 1014.85 1014.57 1014.25 1013.75 1013.11 1012.47 1011.88 1012.08 1011.28 1011.79 1010.95 1010.28 1007.07 1005.74 1005.35 1005.26 1005.13 1005.34 1005.47 1005.52 1005.77 1005.94 1006.63 1008.15 1010.75 1012.00 1012.29 1013.86 1014.49 1015.27 1015.89 1015.40 1015.97 1016.63 1017.37 1019.65 1020.78 1019.47 1020.28 1020.18 1020.69 1021.04 1021.52
1015.52 1015.20 1014.91 1014.59 1014.19 1013.89 1012.90 1011.80 1012.08 1011.61 1010.73 1009.38 1008.33 1007.24 1005.76 1005.14 1005.03 1005.27 1005.15 1005.54 1005.81 1006.09 1006.38 1006.10 1007.43 1008.42 1008.56 1009.27 1010.30 1011.77 1013.02 1014.09 1014.37 1014.85 1016.56 1017.83 1018.52 1019.57 1018.92 1020.02 1019.91 1020.20 1020.66 1021.11 1021.47
1015.36 1015.02 1014.63 1014.23 1014.14 1014.04 1014.11 1012.33 1009.30 1007.99 1008.17 1007.53 1006.78 1006.01 1005.11 1004.66 1005.04 1004.97 1005.18 1006.00 1006.16 1006.59 1006.42 1007.48 1007.98 1008.06 1007.91 1008.92 1009.71 1010.71 1012.11 1012.73 1012.69 1014.81 1016.89 1017.59 1019.32 1020.08 1020.42 1021.09 1020.51 1020.95 1021.87 1022.07 1022.14
1015.32 1014.91 1014.57 1014.22 1013.95 1013.99 1012.55 1010.10 1007.51 1007.06 1007.42 1006.12 1005.26 1004.89 1004.52 1004.55 1004.48 1004.56 1005.11 1005.70 1006.12 1006.66 1007.29 1008.03 1008.59 1008.09 1008.79 1009.04 1009.65 1010.46 1010.92 1011.46 1012.11 1013.82 1015.92 1017.12 1019.64 1020.44 1021.03 1022.03 1021.94 1022.78 1022.96 1023.35 1022.96
1014.98 1014.69 1014.42 1014.03 1013.95 1011.83 1010.42 1007.65 1007.76 1007.01 1007.23 1005.30 1004.43 1003.99 1004.13 1004.26 1004.36 1003.93 1004.52 1005.36 1005.86 1007.00 1007.22 1007.77 1007.58 1008.86 1009.39 1009.93 1009.97 1010.97 1011.14 1011.19 1011.29 1012.74 1015.93 1016.90 1020.54 1021.23 1021.66 1022.91 1022.62 1023.01 1022.92 1023.11 1022.94
1014.76 1014.49 1014.26 1014.21 1013.64 1011.59 1008.39 1007.13 1006.96 1007.21 1007.18 1004.78 1003.90 1003.30 1003.62 1004.26 1003.74 1003.87 1004.07 1004.73 1005.70 1006.65 1007.16 1008.56 1008.75 1008.93 1008.77 1009.52 1010.04 1010.12 1010.02 1010.22 1010.68 1011.91 1015.59 1018.31 1020.24 1022.29 1022.95 1023.28 1023.18 1022.78 1022.92 1022.98 1022.73
1014.57 1014.17 1013.94 1013.95 1013.47 1010.35 1008.67 1007.57 1007.18 1007.93 1006.28 1004.34 1003.75 1003.65 1003.89 1003.74 1003.63 1003.86 1004.14 1004.43 1005.75 1006.67 1007.54 1008.67 1008.79 1009.25 1009.63 1009.83 1009.59 1009.69 1010.12 1010.83 1011.34 1013.36 1017.79 1020.25 1021.49 1022.94 1023.18 1023.33 1023.03 1022.57 1022.72 1022.50 1022.48
1014.12 1013.91 1014.04 1012.85 1011.26 1009.12 1008.46 1008.14 1008.34 1007.56 1005.70 1004.39 1003.88 1003.66 1003.72 1003.84 1003.90 1004.28 1005.00 1005.67 1006.67 1007.83 1008.50 1009.14 1009.41 1009.80 1010.10 1010.37 1009.72 1010.00 1010.89 1012.05 1013.66 1015.52 1019.58 1021.00 1022.09 1023.50 1022.74 1022.45 1022.04 1021.97 1022.39 1022.38 1022.41
1013.70 1013.48 1012.66 1011.53 1010.36 1009.57 1009.70 1009.56 1008.78 1007.25 1006.37 1004.77 1003.80 1003.48 1003.94 1004.24 1004.52 1005.34 1006.19 1007.14 1007.53 1008.13 1009.16 1009.60 1009.65 1010.00 1010.62 1010.56 1010.56 1010.65 1011.36 1013.11 1014.77 1017.28 1020.32 1021.50 1022.85 1022.98 1022.65 1022.14 1021.38 1021.48 1021.78 1022.12 1022.40
1013.14 1012.70 1011.99 1009.98 1009.76 1009.93 1010.55 1009.99 1009.11 1007.63 1005.97 1004.64 1003.82 1004.29 1004.80 1005.01 1005.52 1006.68 1007.66 1008.15 1009.10 1009.29 1010.15 1010.06 1010.00 1009.67 1010.47 1010.44 1010.67 1011.38 1012.57 1012.96 1014.73 1018.03 1020.70 1023.12 1023.48 1023.14 1022.21 1022.08 1021.87 1022.06 1022.54 1022.84 1022.58
1013.43 1012.33 1010.56 1008.69 1008.93 1009.54 1010.39 1009.88 1008.67 1006.95 1006.38 1005.17 1005.93 1006.36 1006.39 1006.28 1006.84 1008.22 1009.16 1009.79 1009.83 1009.97 1010.04 1010.95 1010.89 1010.97 1010.99 1010.66 1011.73 1012.75 1013.29 1014.14 1016.17 1019.06 1021.89 1023.53 1023.56 1022.96 1022.02 1021.66 1021.73 1021.84 1022.13 1022.50 1022.51
1013.48 1012.01 1008.82 1008.13 1008.83 1009.72 1010.43 1009.62 1008.27 1006.26 1005.66 1006.02 1006.49 1007.19 1007.42 1007.48 1008.01 1009.19 1010.29 1010.85 1010.81 1011.11 1011.26 1011.59 1011.96 1012.83 1012.18 1013.68 1014.12 1014.50 1015.16 1015.83 1017.90 1019.75 1021.32 1023.09 1023.77 1022.22 1021.80 1021.42 1021.61 1021.60 1021.70 1022.10 1022.23
1013.29 1011.57 1008.18 1007.77 1009.44 1009.95 1010.29 1008.84 1008.12 1005.93 1005.66 1006.18 1006.56 1007.40 1008.21 1008.64 1008.88 1009.55 1010.92 1011.45 1011.81 1011.71 1012.28 1012.53 1012.99 1014.00 1014.63 1014.81 1015.34 1016.00 1016.66 1016.97 1018.33 1020.40 1021.28 1022.17 1023.01 1021.86 1021.50 1021.46 1021.49 1021.70 1021.78 1021.64 1021.86
1013.34 1010.93 1008.46 1008.69 1010.28 1010.57 1009.78 1009.60 1008.52 1006.45 1006.71 1007.09 1007.60 1008.24 1008.48 1009.00 1009.53 1010.24 1011.16 1011.89 1012.02 1012.44 1013.20 1013.42 1013.98 1015.11 1015.84 1015.61 1016.23 1016.87 1017.16 1017.54 1018.55 1019.58 1020.89 1021.94 1022.89 1021.76 1021.50 1021.46 1021.39 1021.52 1021.33 1021.41 1021.54
1013.60 1011.36 1009.79 1010.06 1010.49 1010.78 1010.62 1010.03 1008.85 1007.25 1007.47 1007.77 1008.41 1008.78 1009.29 1009.77 1009.71 1010.87 1011.66 1012.32 1012.55 1013.01 1013.37 1014.22 1015.51 1016.42 1017.53 1018.05 1018.10 1017.98 1018.10 1018.31 1019.13 1020.37 1021.28 1022.26 1022.50 1022.09 1021.91 1021.73 1021.47 1021.50 1021.34 1021.37 1021.31
1013.36 1011.38 1009.60 1010.21 1011.41 1011.61 1012.19 1010.98 1008.64 1008.17 1008.14 1008.54 1009.46 1010.18 1010.82 1011.19 1011.01 1011.71 1011.92 1012.50 1013.14 1013.64 1014.19 1015.61 1017.07 1017.65 1018.22 1018.36 1018.34 1018.41 1018.68 1019.24 1020.01 1020.74 1021.59 1022.50 1022.37 1022.21 1021.79 1021.53 1021.43 1021.40 1021.47 1021.46 1021.57
1013.20 1011.39 1010.02 1010.15 1011.09 1011.52 1011.73 1010.14 1009.50 1009.03 1009.10 1009.65 1010.35 1010.90 1011.51 1012.05 1012.47 1012.94 1013.07 1013.42 1014.22 1014.51 1015.02 1016.08 1017.86 1018.43 1018.91 1018.74 1018.95 1019.16 1019.28 1019.78 1020.59 1021.37 1021.97 1022.40 1022.87 1022.54 1022.26 1021.65 1021.96 1022.00 1021.93 1021.97 1022.01
1011.92 1010.89 1010.44 1010.58 1011.92 1012.55 1012.12 1011.31 1010.52 1009.46 1010.33 1010.40 1010.68 1011.47 1012.02 1012.31 1012.69 1013.35 1013.72 1014.29 1014.78 1015.21 1015.86 1016.97 1018.18 1019.14 1020.03 1019.79 1019.48 1020.09 1020.18 1020.33 1021.55 1022.61 1023.00 1023.64 1023.73 1023.12 1023.01 1022.92 1022.72 1022.54 1022.39 1022.23 1022.16
Wind_Speed
12 12 11 10 11 11 11 11 11 12 12 12 12 12 12 14 17 4 5 5 4 12 4 6 7 11 7 1 4 6 6 2 5 3 5 8 6 10 11 11 7 5 6 5 2
12 12 11 11 11 11 10 11 11 12 12 11 10 11 11 13 4 7 5 6 5 7 2 5 7 8 2 5 4 5 6 11 12 17 11 12 10 11 8 12 10 11 9 4 2
12 12 11 11 12 11 11 11 11 11 11 10 10 11 10 9 3 5 9 7 6 6 3 6 9 8 2 14 12 10 5 7 12 8 17 15 16 6 16 8 8 10 9 5 8
13 12 11 12 12 12 12 12 11 12 10 10 10 11 10 3 4 4 9 7 6 1 5 7 7 7 21 13 10 13 9 10 10 14 16 9 8 8 10 8 10 10 9 6 10
12 12 12 12 12 12 12 12 13 13 10 10 9 10 3 2 9 7 10 8 4 2 5 7 1 7 11 13 5 3 6 10 10 15 18 20 16 11 15 14 12 10 9 7 5
13 12 12 13 13 13 13 13 13 13 10 10 8 9 2 4 5 11 10 7 7 7 7 7 3 11 10 10 6 3 2 4 16 15 8 16 11 6 11 13 13 11 10 8 5
12 12 12 13 13 13 14 13 14 14 9 9 7 6 4 12 9 9 10 7 8 8 11 3 11 17 3 6 7 8 2 5 18 10 11 6 6 8 9 14 16 14 13 11 10
13 12 13 13 13 14 14 13 15 15 11 8 6 4 8 3 7 9 9 8 11 12 2 7 27 18 15 2 5 1 3 4 3 2 7 11 4 16 12 11 13 16 16 14 14
14 13 13 14 14 15 15 15 16 15 8 2 2 4 8 2 5 10 9 7 7 4 1 3 10 7 6 8 3 2 3 1 5 5 3 4 8 15 10 15 14 11 13 12 15
14 14 14 14 14 15 17 13 9 13 4 7 8 4 7 8 6 7 6 4 5 5 4 5 4 4 8 6 5 5 3 3 7 6 7 5 10 9 5 14 14 12 9 15 13
15 14 14 13 12 12 11 5 3 3 4 8 8 6 7 11 8 7 3 2 8 7 6 10 1 7 11 9 7 11 5 9 8 6 7 8 18 12 19 11 12 16 11 12 10
15 14 14 13 11 8 3 3 8 5 6 16 19 20 18 11 7 7 4 3 6 9 8 8 5 19 16 15 12 10 5 9 6 11 6 7 17 7 5 6 10 11 10 8 7
13 13 13 13 11 2 5 9 11 6 2 12 19 10 7 4 10 10 9 9 9 8 4 6 6 15 15 15 20 18 4 5 9 14 14 13 8 5 4 14 19 17 14 5 6
14 13 12 13 4 4 6 14 9 4 2 6 6 7 6 9 8 10 13 12 5 1 3 4 5 8 11 8 7 7 14 15 13 3 4 4 2 8 6 11 13 11 10 11 12
13 12 10 5 6 4 10 8 4 5 2 9 8 11 8 9 6 5 7 6 6 3 3 4 8 4 5 3 10 5 9 11 15 7 7 9 8 8 7 6 10 10 10 11 7
13 11 11 4 3 11 16 15 5 2 6 8 7 8 8 10 9 8 7 6 6 2 5 3 0 4 5 5 10 7 5 12 5 6 9 10 7 4 3 5 7 5 10 7 4
13 9 4 7 5 13 13 6 3 3 7 5 9 9 10 4 3 3 4 10 4 6 6 3 1 3 3 6 7 3 5 5 7 6 4 3 10 4 10 3 11 10 6 5 10
13 9 8 6 8 10 5 5 2 8 12 16 8 9 9 7 3 11 11 5 10 9 5 5 8 4 3 7 5 6 7 4 2 3 3 9 4 4 6 11 7 10 6 8 8
12 2 3 6 11 2 3 2 6 6 7 9 5 7 8 10 7 9 8 8 7 7 3 4 6 9 6 4 9 6 8 4 4 7 7 1 3 4 6 9 3 6 7 2 7
2 3 5 7 6 1 2 4 3 9 13 9 9 13 6 6 5 5 7 11 6 14 7 5 4 10 16 16 13 10 9 8 6 4 5 4 5 6 1 6 7 7 7 8 5
1 2 6 8 3 3 2 7 6 16 2 5 6 10 5 8 8 5 6 13 12 10 7 6 5 6 14 10 14 10 10 6 7 3 4 5 2 5 5 7 8 5 5 7 6
1 2 4 4 4 1 3 5 7 4 10 5 9 8 6 6 4 8 9 6 6 6 4 3 1 5 13 13 15 11 8 6 5 2 3 5 3 5 7 6 8 7 6 5 10
2 3 1 7 2 3 3 7 16 15 12 7 7 7 7 4 6 11 7 8 9 6 4 6 4 4 3 6 13 10 9 5 4 4 3 5 4 2 6 7 6 5 3 4 6
2 3 1 3 3 5 5 9 9 9 8 6 9 12 8 7 4 9 10 6 8 5 6 7 8 10 6 5 5 6 9 10 7 4 8 7 3 7 6 6 7 7 6 6 6
1 5 5 3 3 2 3 17 7 3 8 10 10 11 8 8 8 9 12 8 8 2 7 8 9 12 8 9 7 5 6 13 12 9 9 6 7 4 4 4 4 5 7 8 6
2 2 6 3 6 1 5 7 7 15 11 9 9 10 9 9 7 7 6 6 5 7 6 3 4 6 6 8 12 12 13 13 12 11 8 8 8 8 10 9 10 7 7 7 6
3 4 3 3 4 9 5 7 11 10 14 12 10 9 10 8 9 6 7 7 6 5 4 4 4 3 2 4 5 8 10 9 16 17 12 7 4 9 11 7 7 6 5 5 4
Wind_Direction
331 329 329 324 316 313 314 305 298 295 294 302 316 318 329 325 309 147 246 224 180 148 168 262 208 232 213 91 47 78 82 131 252 240 182 99 99 60 58 82 63 52 79 125 268
332 331 328 320 312 305 306 298 296 299 301 307 316 327 330 334 293 268 214 193 234 146 248 275 304 260 148 158 37 63 117 163 201 220 132 115 109 122 91 90 78 85 77 79 350
331 333 322 318 314 308 303 296 297 296 304 314 326 324 325 322 316 248 153 190 179 159 265 273 290 316 46 63 357 334 13 212 252 161 129 120 95 96 127 94 125 123 117 68 90
333 327 327 317 312 306 300 299 304 300 310 322 321 322 322 259 0 158 155 186 169 335 289 293 329 60 76 71 22 356 338 7 96 105 101 76 83 65 45 98 127 124 123 105 95
331 329 330 316 311 307 307 304 301 299 312 317 317 330 329 250 249 150 160 156 164 192 233 266 63 104 92 124 93 326 315 339 60 88 77 79 73 96 98 118 126 139 101 93 95
329 332 323 315 312 310 304 299 300 301 313 306 327 321 241 281 125 145 168 153 232 197 245 249 25 86 75 66 96 287 303 13 47 29 83 103 140 93 136 134 132 124 121 129 133
327 326 322 315 311 310 303 303 301 298 304 305 320 299 274 242 136 169 182 199 218 218 247 249 182 89 319 123 212 342 100 21 24 344 93 120 132 91 159 152 156 148 150 160 177
330 323 317 315 315 307 307 307 299 295 301 287 285 276 257 211 169 179 207 242 232 243 307 145 96 120 136 137 49 207 40 111 258 62 133 103 219 147 169 186 159 164 173 172 163
327 322 322 319 319 317 313 303 291 289 265 247 248 210 280 313 218 211 210 243 221 309 354 322 163 126 60 119 128 322 104 184 293 283 174 192 147 158 150 204 171 168 165 153 136
325 327 324 321 320 320 316 277 290 318 200 205 254 311 253 220 228 254 239 336 323 278 308 246 251 231 145 179 212 160 179 169 215 234 238 292 274 99 318 225 166 169 154 143 139
325 323 318 316 323 332 344 353 346 302 255 221 202 237 283 203 200 251 218 302 307 317 255 266 263 270 263 208 83 123 141 164 234 197 83 242 265 95 210 206 167 173 152 151 148
325 323 324 322 315 327 294 254 255 260 307 225 253 270 246 165 202 204 198 242 254 256 276 17 25 346 7 51 57 44 148 201 228 142 125 105 96 157 219 175 180 131 52 71 126
322 322 320 313 306 275 226 241 258 315 280 284 224 228 248 185 206 219 162 238 242 288 347 113 259 323 34 27 23 3 333 270 228 159 189 110 50 19 31 52 81 82 92 281 275
324 322 319 316 303 293 244 251 239 54 341 253 195 192 181 226 258 189 186 201 264 69 68 146 258 327 37 49 57 258 271 283 319 235 113 319 98 29 61 64 101 131 147 214 238
324 320 318 337 305 288 266 321 15 59 323 173 226 160 196 197 150 183 182 227 226 191 102 18 46 8 53 299 340 262 328 295 301 346 117 360 72 325 17 108 149 187 223 229 251
322 324 327 154 225 255 303 291 29 26 247 176 146 183 235 235 209 148 191 200 117 207 88 126 263 34 331 309 279 345 288 287 4 98 57 9 91 288 311 198 216 214 230 238 303
326 316 298 313 243 321 321 356 8 212 322 175 173 200 220 212 194 135 110 44 74 18 13 169 334 110 42 352 323 319 7 357 11 25 92 169 59 311 326 324 213 202 206 160 122
318 315 209 235 288 305 339 359 342 313 308 293 246 216 175 178 169 56 58 33 27 45 333 349 343 150 164 216 240 341 85 106 6 55 136 10 108 227 294 319 83 132 108 124 133
320 209 263 242 224 239 20 14 194 254 274 278 39 42 24 45 75 74 8 48 36 57 39 345 350 28 198 67 41 5 16 331 89 101 80 3 227 295 278 292 126 130 104 203 178
1 294 247 242 233 90 26 254 234 260 299 46 54 27 3 26 55 58 1 26 13 24 4 351 26 23 35 34 26 65 349 23 10 51 102 66 12 331 225 226 202 192 201 179 189
23 338 255 215 141 66 237 217 292 275 192 70 48 103 317 31 20 124 99 45 33 352 43 19 70 54 60 57 47 14 11 31 102 93 120 141 251 271 359 46 61 113 118 149 193
348 285 258 94 65 226 211 259 302 152 62 89 54 60 73 38 333 90 80 68 63 5 24 13 62 81 87 71 61 50 34 14 101 291 106 116 225 357 64 66 67 55 112 135 112
284 249 298 83 117 290 277 322 297 65 54 41 37 50 18 101 47 117 96 67 64 41 21 320 339 119 161 34 40 29 5 13 82 72 44 101 248 279 66 64 83 77 323 161 132
335 308 26 76 153 86 298 279 271 55 59 61 55 38 17 359 123 129 132 88 79 44 4 86 58 83 108 87 36 34 19 31 64 62 42 91 126 42 41 37 44 21 7 140 152
198 261 191 182 95 106 69 289 122 136 79 49 47 47 21 17 32 43 114 146 122 100 58 91 93 87 77 112 119 82 68 58 43 20 83 81 73 64 62 57 97 62 33 26 34
265 9 345 61 118 314 236 305 348 61 78 44 83 76 51 53 69 49 53 34 45 24 86 46 92 85 52 82 78 36 22 73 64 33 46 54 40 17 11 13 54 36 43 26 8
313 318 109 265 141 130 249 171 236 110 45 40 62 85 64 69 82 96 94 83 80 55 52 80 131 66 106 338 346 29 8 28 65 42 44 42 332 19 13 28 39 5 29 26 354